Regional Weather Roundup
Issued by NWS

Home | Current Version | Previous Version | Graphics & Text | Print | Product List | Glossary On
Versions: 1 2 3 4 5 6 7 8 9 10 11 12 13 14 15 16 17 18 19 20 21 22 23 24 25 26 27 28 29 30 31 32 33 34 35 36 37 38 39 40 41 42 43 44 45 46 47 48 49 50
000
ASUS43 KMKX 301421
RWRWI

WISCONSIN REGIONAL WEATHER ROUNDUP
NATIONAL WEATHER SERVICE MILWAUKEE/SULLIVAN WI
900 AM CDT TUE SEP 30 2014

NOTE: "FAIR" INDICATES FEW OR NO CLOUDS BELOW 12,000 FEET WITH NO
SIGNIFICANT WEATHER AND/OR OBSTRUCTIONS TO VISIBILITY.

WIZ001-002-006>008-014>016-023>028-301500-
NORTHWEST WISCONSIN

CITY           SKY/WX    TMP DP  RH WIND       PRES   REMARKS
SUPERIOR ARPT  CLOUDY    44  40  86 E10       30.12F
ASHLAND        CLOUDY    43  38  82 E3        30.15
HAYWARD        CLOUDY    40  37  89 NE10      30.11  WCI  33
SIREN          CLOUDY    42  39  89 E6        30.10S
CUMBERLAND     CLOUDY    39  36  87 E6        30.10  WCI  35
RICE LAKE      CLOUDY    41  37  87 E8        30.12S
CHETEK         CLOUDY    40  38  92 E5        30.11
LADYSMITH      CLOUDY    40  37  92 NE7       30.13S WCI  35
EAU CLAIRE     CLOUDY    42  37  82 SE6       30.10S
MENOMONIE      CLOUDY    42  37  83 E12       30.11
NEW RICHMOND   CLOUDY    41  38  89 E7        30.09S
OSCEOLA        CLOUDY    42  41  95 E8        30.12
$$

WIZ003>005-009-010-017-018-301500-
NORTH CENTRAL WISCONSIN

CITY           SKY/WX    TMP DP  RH WIND       PRES   REMARKS
MANITOWISH WTR CLOUDY    37  37 100 E3        30.12
ARBOR VITAE    CLOUDY    39  37  91 NE5       30.12
WOODRUFF       CLOUDY    39  37  91 NE5       30.12
RHINELANDER    CLOUDY    38  36  92 NE6       30.12  WCI  33
EAGLE RIVER    CLOUDY    38  38 100 NE6       30.11S WCI  34
LAND O LAKES   CLOUDY    38  38 100 NE7       30.13S FOG     WCI  33
PHILLIPS       CLOUDY    38  36  95 NE7       30.11  WCI  32
TOMAHAWK       CLOUDY    39  36  89 NE5       30.13S
MEDFORD        CLOUDY    38  37  96 NE8       30.10S WCI  32
MERRILL        CLOUDY    40  38  95 NE3       30.12R
$$

WIZ029-030-035-036-043>047-301500-
CENTRAL WISCONSIN

CITY           SKY/WX    TMP DP  RH WIND       PRES   REMARKS
WAUSAU         CLOUDY    40  37  89 NE6       30.11
MOSINEE        CLOUDY    39  39 100 NE7       30.13  WCI  34
MARSHFIELD     CLOUDY    41  37  86 E10       30.10
STEVENS POINT  CLOUDY    38  36  91 N3        30.12S
WAUPACA        CLOUDY    44  39  83 N7        30.12
WAUTOMA        NOT AVBL
WISC RAPIDS    CLOUDY    42  37  82 E8        30.12
CAMP DOUGLAS   CLOUDY    41  41 100 NE7       30.10
$$

WIZ011>013-019>022-031-037>040-048>050-301500-
NORTHEAST WISCONSIN

CITY           SKY/WX    TMP DP  RH WIND       PRES   REMARKS
ANTIGO         CLOUDY    39  38  95 NE7       30.11S WCI  34
SHAWANO        CLOUDY    44  38  80 NE6       30.13S
OCONTO         CLOUDY    42  40  93 N7        30.12
STURGEON BAY   NOT AVBL
GREEN BAY      CLOUDY    43  41  93 N9        30.12  FOG
MANITOWOC      NOT AVBL
APPLETON       CLOUDY    43  37  81 N10       30.11
CLINTONVILLE   CLOUDY    43  36  75 NE9       30.12S
OSHKOSH        CLOUDY    45  39  79 N12       30.10
$$

WIZ032>034-041-042-053>061-301500-
SOUTHWEST WISCONSIN

CITY           SKY/WX    TMP DP  RH WIND       PRES   REMARKS
LA CROSSE      CLOUDY    47  41  80 SE8       30.10
SPARTA         CLOUDY    42  39  89 SE7       30.11
VIROQUA        CLOUDY    43  43 100 E5        30.08S
BOSCOBEL       CLOUDY    47  42  83 NE6       30.10
PRAIRIE DU CHI CLOUDY    46  42  84 E6        30.08
PLATTEVILLE    CLOUDY    46  42  89 E9        30.09R
$$

WIZ056-057-062-063-064-067-068-301500-
SOUTH CENTRAL WISCONSIN

CITY           SKY/WX    TMP DP  RH WIND       PRES   REMARKS
REEDSBURG      CLOUDY    42  40  93 E3        30.09
BARABOO/DELLS  CLOUDY    41  38  87 E8        30.09S
LONE ROCK      CLOUDY    48  41  76 NE8       30.10
MINERAL POINT  CLOUDY    45  41  87 NE8       30.07
MADISON        CLOUDY    44  40  85 E8        30.09
MIDDLETON      CLOUDY    44  42  91 NE8       30.09F
WATERTOWN      CLOUDY    43  41  93 NE6       30.09S
MONROE         CLOUDY    43  41  93 NE9       30.08R
JANESVILLE     NOT AVBL
$$

WIZ051-052-058>065-066-070>072-301500-
SOUTHEAST WISCONSIN

CITY           SKY/WX    TMP DP  RH WIND       PRES   REMARKS
MILWAUKEE      CLOUDY    47  41  80 N9        30.08
WAUKESHA       CLOUDY    43  39  87 N7        30.10
MILWAUKEE/TIMM CLOUDY    45  37  76 N9        30.08
RACINE         CLOUDY    47  43  86 NW9       30.08
BURLINGTON     CLOUDY    44  38  81 NE8       30.09S
KENOSHA        CLOUDY    47  42  83 N9        30.08
FOND DU LAC    CLOUDY    45  39  79 NE8       30.10
SHEBOYGAN      NOT AVBL
WEST BEND      CLOUDY    43  37  81 N6        30.08S
JUNEAU         CLOUDY    43  40  88 NE8       30.10R
$$

LSZ147-162-301500-
LAKE SUPERIOR

STATION/POSITION TIME  TEMP    WIND        PRES    WAVE
                       AIR SEA DIR/SP/G            HT/PER
                 (UTC) (F)     (DEG/KT/KT) (MB)    (FT/S)
W MID LAKE BUOY  1350   44 49   90/ 10/ 12 1021.8F   2/ 6
DEVILS ISLAND    1400   45      80/ 12/ 14 1021.7F
SAXON HARBOR     1300   43      90/  2/  8 1021.3
$$

LMZ867-665-643>646-301500-
LAKE MICHIGAN

STATION/POSITION TIME  TEMP    WIND        PRES    WAVE
                       AIR SEA DIR/SP/G            HT/PER
                 (UTC) (F)     (DEG/KT/KT) (MB)    (FT/S)
CHAMBERS ISLAND  1300   45     330/ 14/ 20 1019.3
S GREEN BAY BUOY 1400   45                 1020.4
N MID LAKE BUOY  1350   47 58   10/ 16/ 19 1018.5    3/ 5
NORTHPORT PIER   1300   46     350/ 15/ 18 1019.0
KEWAUNEE LAKESHO 1400   45     350/  7/ 11 1018.1R
SHEBOYGAN LAKESH 1400   46 54  350/ 15/ 17 1019.4R
PORT WASHINGTON  1300          340/  4/ 12 1019.3
ATWATER BUOY     1400   48     350/ 16/ 17 1019.1S
MILWAUKEE LAKESH 1400          330/ 10/ 14   N/A
S MID LAKE BUOY  1350   52 61  360/ 17/ 21 1017.0S   6/ 8
KENOSHA   LAKESH 1400          330/ 11/ 13 1018.3R
$$

TC  - TEMPERATURE IN CELSIUS
VSB - VISIBILITY IN STATUTE MILES
WCI - WIND CHILL INDEX
HX  - HEAT INDEX




USA.gov is the U.S. government's official web portal to all federal, state and local government web resources and services.